Location: Kalberh�ni
(46.4610°N, 7.2453°E)
Time: 07:18:22
(UTC+00:00)

deb Kosmos-2227 - Pass Details

Date: 16 August 2022
Orbit: 774 x 865 km, 70.9° (Epoch: 26 September)

Event Time Altitude Azimuth Distance (km) Brightness Sun altitude
Rises 21:14:43 0° 340° (NNW) 3,336 ? -22.2°
Reaches altitude 10° 21:17:46 10° 357° (N) 2,418 ? -22.5°
Maximum altitude 21:21:50 20° 44° (NE) 1,819 ? -22.9°
Enters shadow 21:24:07 16° 75° (ENE) 2,040 ? -23.2°
